Location: Góry Miechowskie
(50.3599°N, 20.1803°E)
Time: 10:33:16
(UTC+00:00)

Altair - All Passes

Search period start: 07 September 2024 00:00
Search period end: 17 September 2024 00:00
Orbit: 1501 x 1682 km, 47.2° (Epoch: 06 September)

Date Brightness Start Highest point End Pass type
(mag) Time Alt. Az. Time Alt. Az. Time Alt. Az.
07 Sep - 01:04:36 10° SSE 01:09:08 14° ESE 01:13:42 10° E visible
07 Sep - 03:02:34 10° SSW 03:11:46 42° SE 03:20:59 10° ENE visible
07 Sep - 05:05:41 10° WSW 05:15:46 71° SSE 05:25:45 10° E daylight
07 Sep - 07:10:15 10° W 07:20:22 72° SSW 07:30:14 10° ESE daylight
07 Sep - 09:15:06 10° WNW 09:24:23 44° SW 09:33:24 10° SSE daylight
07 Sep - 11:22:00 10° W 11:27:02 15° SW 11:32:00 10° SSW daylight
08 Sep - 00:40:32 10° SE 00:44:07 12° ESE 00:47:42 10° E visible
08 Sep - 02:37:34 10° SSW 02:46:37 39° SE 02:55:43 10° E visible
08 Sep - 04:40:28 10° WSW 04:50:32 69° SSE 05:00:32 10° E daylight
08 Sep - 06:45:01 10° W 06:55:08 73° S 07:05:03 10° ESE daylight
08 Sep - 08:49:49 10° WNW 08:59:14 46° SSW 09:08:23 10° SE daylight
08 Sep - 10:56:18 10° W 11:02:00 17° SW 11:07:37 10° SSW daylight
09 Sep - 00:17:01 10° SE 00:19:05 11° ESE 00:21:11 10° ESE visible
09 Sep - 02:12:37 10° SSW 02:21:29 37° SE 02:30:25 10° E visible
09 Sep - 04:15:17 10° WSW 04:25:18 67° SSE 04:35:18 10° E daylight
09 Sep - 06:19:45 10° W 06:29:54 74° S 06:39:51 10° ESE daylight
09 Sep - 08:24:32 10° W 08:34:05 49° SSW 08:43:21 10° SE daylight
09 Sep - 10:30:42 10° W 10:36:57 19° SW 10:43:07 10° SSW daylight
10 Sep - 01:47:40 10° SSW 01:56:21 35° SE 02:05:07 10° E visible
10 Sep - 03:50:06 10° WSW 04:00:05 66° SSE 04:10:04 10° E daylight
10 Sep - 05:54:30 10° W 06:04:39 75° S 06:14:39 10° ESE daylight
10 Sep - 07:59:16 10° W 08:08:55 51° SSW 08:18:18 10° SE daylight
10 Sep - 10:05:10 10° W 10:11:54 21° SW 10:18:31 10° S daylight
11 Sep - 01:22:46 10° SSW 01:31:14 33° SE 01:39:48 10° E visible
11 Sep - 03:24:55 10° WSW 03:34:52 64° SSE 03:44:50 10° E visible
11 Sep - 05:29:15 10° W 05:39:25 75° S 05:49:27 10° ESE daylight
11 Sep - 07:34:00 10° W 07:43:44 54° SSW 07:53:15 10° SE daylight
11 Sep - 09:39:41 10° W 09:46:51 23° SW 09:53:53 10° S daylight
12 Sep - 00:57:52 10° SSW 01:06:08 30° SE 01:14:28 10° E visible
12 Sep - 02:59:46 10° SW 03:09:39 62° SSE 03:19:35 10° E visible
12 Sep - 05:04:01 10° W 05:14:10 76° S 05:24:14 10° E daylight
12 Sep - 07:08:44 10° W 07:18:33 56° SSW 07:28:09 10° SE daylight
12 Sep - 09:14:15 10° W 09:21:47 25° SW 09:29:10 10° S daylight
13 Sep - 00:33:03 10° S 00:41:01 28° SE 00:49:07 10° E visible
13 Sep - 02:34:38 10° SW 02:44:27 60° SSE 02:54:21 10° E visible
13 Sep - 04:38:46 10° W 04:48:55 76° S 04:59:00 10° E daylight
13 Sep - 06:43:30 10° W 06:53:22 58° SSW 07:03:03 10° SE daylight
13 Sep - 08:48:51 10° W 08:56:42 27° SW 09:04:24 10° S daylight
14 Sep - 00:08:15 10° S 00:15:56 26° SE 00:23:44 10° E visible
14 Sep - 02:09:30 10° SW 02:19:15 57° SSE 02:29:06 10° E visible
14 Sep - 04:13:33 10° W 04:23:41 76° S 04:33:47 10° E daylight
14 Sep - 06:18:14 10° W 06:28:10 60° SSW 06:37:56 10° SE daylight
14 Sep - 08:23:28 10° W 08:31:37 29° SW 08:39:36 10° S daylight
14 Sep - 23:43:29 10° S 23:50:51 24° SE 23:58:19 10° E visible
15 Sep - 01:44:24 10° SW 01:54:03 55° SSE 02:03:51 10° E visible
15 Sep - 03:48:19 10° W 03:58:26 76° S 04:08:33 10° E daylight
15 Sep - 05:52:59 10° W 06:02:58 63° SSW 06:12:47 10° SE daylight
15 Sep - 07:58:07 10° W 08:06:31 31° SW 08:14:45 10° SSE daylight
15 Sep - 23:18:47 10° S 23:25:46 22° SE 23:32:52 10° E visible
16 Sep - 01:19:18 10° SW 01:28:52 53° SSE 01:38:35 10° E visible
16 Sep - 03:23:05 10° WSW 03:33:12 75° S 03:43:19 10° E visible
16 Sep - 05:27:44 10° W 05:37:45 65° SSW 05:47:38 10° ESE daylight
16 Sep - 07:32:47 10° W 07:41:24 33° SW 07:49:53 10° SSE daylight
16 Sep - 22:54:08 10° S 23:00:43 20° SE 23:07:23 10° E visible
